Regional Weather Roundup
Issued by NWS

Home | Current Version | Previous Version | Graphics & Text | Print | Product List | Glossary On
Versions: 1 2 3 4 5 6 7 8 9 10 11 12 13 14 15 16 17 18 19 20 21 22 23 24 25 26 27
000
ASUS45 KPSR 260510
RWRAZ

ARIZONA HOURLY REGIONAL WEATHER ROUNDUP
NATIONAL WEATHER SERVICE PHOENIX AZ
1000 PM MST TUE JUL 25 2017

NOTE: FAIR INDICATES FEW OR NO CLOUDS BELOW 12,000 FEET WITH NO
SIGNIFICANT WEATHER AND/OR OBSTRUCTIONS TO VISIBILITY.

AZZ001>003-036-260600-
NORTHWEST ARIZONA

CITY           SKY/WX    TMP DP  RH WIND       PRES   REMARKS
KINGMAN        CLEAR     68  67  96 E3        30.13R
$$

AZZ004>008-015-016-018-260600-
NORTH CENTRAL ARIZONA

CITY           SKY/WX    TMP DP  RH WIND       PRES   REMARKS
GRAND CANYON   CLEAR     56  56 100 CALM      30.34R
WILLIAMS       CLOUDY    61  55  82 CALM      30.35R
PRESCOTT       CLEAR     67  63  87 S7        30.23R
FLAGSTAFF      MOCLDY    60  56  86 W3        30.36R
PAYSON         CLEAR     70  61  73 CALM      30.26S
PAGE           CLEAR     73  62  68 NW7       30.14R
$$

AZZ009>014-017-260600-
NORTHEAST ARIZONA

CITY           SKY/WX    TMP DP  RH WIND       PRES   REMARKS
WINSLOW        CLEAR     72  59  63 CALM      30.21R
SAINT JOHNS    CLEAR     68  63  84 CALM      30.26R
WINDOW ROCK    PTCLDY    67  57  70 S3        30.33R
SHOW LOW       CLEAR     63  57  82 S9        30.33S
$$

AZZ540-542>544-546-548-260600-
GREATER PHOENIX AREA

CITY           SKY/WX    TMP DP  RH WIND       PRES   REMARKS
PHOENIX        CLEAR     94  62  34 E3        29.89R
BUCKEYE        CLEAR     90  66  45 NE5       29.89S
LUKE AFB       CLEAR     90  68  48 N7        29.89R
DEER VALLEY    CLEAR     90  65  43 NW5       29.92R
SCOTTSDALE     CLEAR     92  61  35 CALM      29.94R
MESA-GATEWAY   PTCLDY    91  63  38 CALM      29.93R
$$

AZZ539-553-260600-
SOUTHWEST MARICOPA COUNTY AND PINAL COUNTY

CITY           SKY/WX    TMP DP  RH WIND       PRES   REMARKS
CASA GRANDE    CLEAR     90  68  48 N6        29.94R
GILA BEND      CLEAR     94  58  30 SW6       29.88R
$$

AZZ503-504-507>509-260600-
SOUTHEAST ARIZONA

CITY           SKY/WX    TMP DP  RH WIND       PRES   REMARKS
TUCSON         MOCLDY    85  68  56 SW3       30.04S
DAVIS-MONTHAN  CLEAR     84  67  56 CALM      30.02F
NOGALES        MOCLDY    76  64  66 E5        30.14R
SIERRA VISTA   CLOUDY    76  64  67 W9        30.21R
DOUGLAS        MOCLDY    75  65  70 SE6       30.16R
SAFFORD        CLEAR     81  68  64 NW7       30.05R
$$

AZZ532-260600-
SOUTHWEST ARIZONA

CITY           SKY/WX    TMP DP  RH WIND       PRES   REMARKS
YUMA           CLEAR     92  46  20 S6        29.84R
$$

CAZ041-043-047-048-061-525>527-560>570-260600-
SOUTHERN CALIFORNIA

CITY           SKY/WX    TMP DP  RH WIND       PRES   REMARKS
DOWNTOWN L.A.  CLEAR     70  63  78 W3        29.98R
L.A. AIRPORT   PTCLDY    69  62  78 W8        29.98R
SAN DIEGO      MOCLDY    72  63  73 W6        30.00R
BURBANK        CLEAR     70  60  70 S7        29.98R
ONTARIO        CLEAR     72  61  68 W9        29.99R
RIVERSIDE      CLEAR     72  63  73 W6        30.00R
PALM SPRINGS   CLEAR     92  62  36 NW16      29.86R
EL CENTRO NAS  PTCLDY    89  57  33 SE7       29.83R
IMPERIAL       CLEAR     93  55  27 SE7       29.80R
BLYTHE         PTCLDY    97  51  21 S7        29.84R
NEEDLES        CLEAR     87  68  52 N13       29.92R
$$

NVZ020-UTZ003-260600-
SOUTHERN NEVADA-UTAH

CITY           SKY/WX    TMP DP  RH WIND       PRES   REMARKS
LAS VEGAS      PTCLDY    80  69  69 E10       30.03R
SALT LAKE CITY PTCLDY    78  60  53 SE9       30.10R
$$

NMZ009-TXZ055-260600-
NEW MEXICO-WEST TEXAS

CITY           SKY/WX    TMP DP  RH WIND       PRES   REMARKS
ALBUQUERQUE    PTCLDY    79  55  43 CALM      30.21S
EL PASO        MOCLDY    87  57  35 S8        30.11R
$$


........................KEY........................
SKY/WX - SKY CONDITION/WEATHER
TMP    - TEMPERATURE IN FAHRENHEIT
DP     - DEW POINT IN FAHRENHEIT
RH     - RELATIVE HUMIDITY IN PERCENT
WIND   - DIRECTION AND SPEED IN MILES PER HOUR (MPH)
VRB    - VARIABLE WIND DIRECTION
PRES   - MEAN SEA LEVEL PRESSURE IN INCHES OF MERCURY
         F - FALLING PRESSURE   R - RISING PRESSURE
         S - STEADY PRESSURE
VSB    - VISIBILITY IN MILES
HX     - HEAT INDEX IN FAHRENHEIT
WCI    - WIND CHILL INDEX IN FAHRENHEIT
TC     - TEMPERATURE IN CELSIUS WHICH IS ALSO KNOWN AS
         TEMPERATURE IN CENTIGRADE
AFB    - AIR FORCE BASE
         LUKE AFB IS LUKE AIR FORCE BASE
         DAVIS-MONTHAN IS DAVIS-MONTHAN AIR FORCE BASE
NAS    - NAVAL AIR STATION
         EL CENTRO NAS IS EL CENTRO NAVAL AIR STATION
N/A    - NOT AVAILABLE





USA.gov is the U.S. government's official web portal to all federal, state and local government web resources and services.